TimeEST,TemperatureF,Dew PointF,Humidity,Sea Level PressureIn,VisibilityMPH,Wind Direction,Wind SpeedMPH,Gust SpeedMPH,PrecipitationIn,Events,Conditions,WindDirDegrees,DateUTC
12:53 AM,42.1,30.9,65,29.84,10.0,South,12.7,-,N/A,,Clear,180,2014-01-13 05:53:00
1:53 AM,42.1,30.9,65,29.82,10.0,South,13.8,-,N/A,,Clear,180,2014-01-13 06:53:00
2:53 AM,43.0,30.9,62,29.81,10.0,South,17.3,-,N/A,,Clear,180,2014-01-13 07:53:00
3:53 AM,45.0,30.9,58,29.79,10.0,South,16.1,-,N/A,,Clear,190,2014-01-13 08:53:00
4:53 AM,44.1,30.9,60,29.78,10.0,South,13.8,-,N/A,,Clear,180,2014-01-13 09:53:00
5:53 AM,45.0,32.0,60,29.78,10.0,South,16.1,-,N/A,,Clear,190,2014-01-13 10:53:00
6:53 AM,45.0,33.1,63,29.75,10.0,South,12.7,-,N/A,,Mostly Cloudy,190,2014-01-13 11:53:00
7:53 AM,45.0,35.1,68,29.72,10.0,South,17.3,-,N/A,,Clear,180,2014-01-13 12:53:00
8:53 AM,46.0,36.0,68,29.72,10.0,South,18.4,-,N/A,,Clear,180,2014-01-13 13:53:00
9:53 AM,46.9,37.9,71,29.72,10.0,South,19.6,27.6,N/A,,Clear,190,2014-01-13 14:53:00
10:53 AM,48.9,41.0,74,29.73,10.0,South,18.4,-,N/A,,Clear,180,2014-01-13 15:53:00
11:53 AM,48.9,42.1,77,29.72,10.0,South,12.7,-,N/A,,Overcast,180,2014-01-13 16:53:00
12:53 PM,50.0,42.1,74,29.70,10.0,SSW,11.5,23.0,N/A,,Overcast,200,2014-01-13 17:53:00
1:53 PM,50.0,43.0,77,29.67,10.0,South,10.4,-,N/A,,Overcast,190,2014-01-13 18:53:00
2:53 PM,50.0,43.0,77,29.67,10.0,South,10.4,-,N/A,,Overcast,190,2014-01-13 19:53:00
3:53 PM,48.9,43.0,80,29.68,10.0,South,11.5,-,N/A,,Overcast,190,2014-01-13 20:53:00
4:53 PM,48.0,44.1,86,29.70,10.0,South,9.2,-,N/A,,Overcast,190,2014-01-13 21:53:00
5:26 PM,48.0,44.1,86,29.69,10.0,South,8.1,-,N/A,,Overcast,190,2014-01-13 22:26:00
5:53 PM,48.0,44.1,86,29.70,10.0,South,8.1,-,N/A,,Overcast,180,2014-01-13 22:53:00
6:53 PM,46.0,44.1,93,29.72,7.0,SSW,5.8,-,N/A,,Overcast,200,2014-01-13 23:53:00
7:31 PM,45.0,42.1,90,29.73,7.0,SW,5.8,-,N/A,,Overcast,230,2014-01-14 00:31:00
7:53 PM,44.1,41.0,89,29.74,10.0,SW,5.8,-,N/A,,Overcast,230,2014-01-14 00:53:00
8:53 PM,45.0,41.0,86,29.75,10.0,West,9.2,-,N/A,,Partly Cloudy,270,2014-01-14 01:53:00
9:53 PM,45.0,37.0,74,29.77,10.0,West,9.2,-,N/A,,Partly Cloudy,280,2014-01-14 02:53:00
10:53 PM,43.0,36.0,76,29.79,10.0,WNW,13.8,-,N/A,,Clear,300,2014-01-14 03:53:00
11:53 PM,39.0,34.0,82,29.80,10.0,WNW,6.9,-,N/A,,Clear,290,2014-01-14 04:53:00